Hot Springs, VA

5:39 PM EDT on May 25, 2017 (GMT -0400)
Ingalls

Weather History for KHSP - October, 2012

Change the Weather History Date:

Monday, October 29, 2012

  Actual Average Record
Temperature  
Mean Temperature 32 °F -  
Max Temperature 35 °F 54 °F 98 °F (1997)
Min Temperature 28 °F 38 °F 26 °F (2008)
Degree Days  
Heating Degree Days 32    
Moisture  
Dew Point 31 °F    
Average Humidity 99    
Maximum Humidity 100    
Minimum Humidity 93    
Precipitation  
Precipitation 0.23 in - - ()
Sea Level Pressure  
Sea Level Pressure 29.49 in    
Wind  
Wind Speed 21 mph (WNW)    
Max Wind Speed 36 mph    
Max Gust Speed 54 mph    
Visibility 3 miles    
Events Rain , Snow    
Averages and records for this station are not official NWS values.
T = Trace of Precipitation, MM = Missing Value Source: NWS Daily Summary

Daily Weather History Graph

Daily Weather History Graph

Search for Another Location

Airport or City:

Trip Planner

Search our weather history database for the weather conditions in past years. The results will help you decide how hot, cold, wet, or windy it might be!

Date:

Astronomy

Oct. 29, 2012 Rise Set
Actual Time 7:42 AM EDT 6:23 PM EDT
Civil Twilight 7:15 AM EDT 6:50 PM EDT
Nautical Twilight 6:44 AM EDT 7:21 PM EDT
Astronomical Twilight 6:13 AM EDT 7:51 PM EDT
Moon 6:14 PM EDT (10/29) 7:30 AM EDT (10/29)
Length of Visible Light 11h 35m
Length of Day
10h 40m
Full, 100% of the Moon is Illuminated
Oct 29
Full
Oct 29
Full
Nov 6
Last Quarter
Nov 13
New
Nov 20
First Quarter

Hourly Weather History & Observations

Time (EDT) Temp. Windchill Dew Point Humidity Pressure Visibility Wind Dir Wind Speed Gust Speed Precip Events Conditions
12:15 AM 35.6 °F 25.9 °F 35.6 °F 100% 29.73 in 0.2 mi WNW 16.1 mph 21.9 mph 0.02 in Rain Light Rain
12:55 AM 35.6 °F 25.5 °F 35.6 °F 100% 29.72 in 0.2 mi WNW 17.3 mph 26.5 mph 0.02 in Snow Light Snow
1:15 AM 33.8 °F 23.2 °F 33.8 °F 100% 29.71 in 0.2 mi WNW 17.3 mph 25.3 mph 0.04 in Snow Light Snow
1:35 AM 33.8 °F 23.2 °F 33.8 °F 100% 29.70 in 0.2 mi WNW 17.3 mph 25.3 mph 0.06 in Snow Light Snow
1:55 AM 33.8 °F 23.5 °F 33.8 °F 100% 29.70 in 0.2 mi WNW 16.1 mph 23.0 mph 0.02 in Snow Light Snow
2:15 AM 33.8 °F 23.9 °F 33.8 °F 100% 29.69 in 0.2 mi WNW 15.0 mph - 0.03 in Snow Snow
2:35 AM 33.8 °F 22.8 °F 33.8 °F 100% 29.69 in 0.2 mi WNW 18.4 mph 23.0 mph 0.05 in Snow Light Snow
2:55 AM 33.8 °F 22.5 °F 33.8 °F 100% 29.68 in 0.2 mi WNW 19.6 mph 28.8 mph N/A Snow Light Snow
3:15 AM 33.8 °F 22.8 °F 33.8 °F 100% 29.67 in 0.2 mi WNW 18.4 mph 28.8 mph 0.02 in Snow Light Snow
3:35 AM 33.8 °F 21.9 °F 33.8 °F 100% 29.66 in 0.2 mi WNW 21.9 mph 28.8 mph 0.03 in Snow Snow
3:55 AM 33.8 °F 23.2 °F 33.8 °F 100% 29.65 in 0.2 mi WNW 17.3 mph 29.9 mph 0.01 in Snow Snow
4:15 AM 33.8 °F 23.2 °F 33.8 °F 100% 29.65 in 0.2 mi WNW 17.3 mph 24.2 mph 0.02 in Snow Light Snow
4:35 AM 33.8 °F 23.9 °F 33.8 °F 100% 29.65 in 0.2 mi WNW 15.0 mph 23.0 mph 0.04 in Snow Snow
4:55 AM 33.8 °F 22.8 °F 33.8 °F 100% 29.66 in 0.2 mi WNW 18.4 mph 24.2 mph N/A Snow Light Snow
5:35 AM 32.0 °F 21.2 °F 32.0 °F 100% 29.65 in 0.2 mi WNW 16.1 mph 24.2 mph 0.02 in Snow Light Snow
5:55 AM 32.0 °F 20.8 °F 32.0 °F 100% 29.64 in 0.2 mi WNW 17.3 mph - N/A Snow Snow
6:15 AM 32.0 °F 20.1 °F 32.0 °F 100% 29.64 in 0.2 mi WNW 19.6 mph 24.2 mph N/A Snow Light Snow
6:35 AM 30.2 °F 18.5 °F 30.2 °F 100% 29.63 in 0.2 mi WNW 17.3 mph 26.5 mph 0.01 in Snow Snow
6:55 AM 30.2 °F 18.1 °F 30.2 °F 100% 29.63 in 0.2 mi WNW 18.4 mph 23.0 mph N/A Snow Snow
7:15 AM 30.2 °F 17.8 °F 30.2 °F 100% 29.63 in 0.2 mi NW 19.6 mph 27.6 mph N/A Snow Light Snow
7:55 AM 30.2 °F 17.8 °F 30.2 °F 100% 29.61 in 4.0 mi NW 19.6 mph 28.8 mph N/A   Overcast
8:15 AM 30.2 °F 18.1 °F 30.2 °F 100% 29.62 in 10.0 mi NW 18.4 mph 28.8 mph N/A   Overcast
8:35 AM 30.2 °F 17.1 °F 30.2 °F 100% 29.62 in 10.0 mi NW 21.9 mph 26.5 mph N/A   Overcast
8:55 AM 30.2 °F 17.1 °F 30.2 °F 100% 29.61 in 10.0 mi WNW 21.9 mph 26.5 mph N/A   Overcast
9:15 AM 30.2 °F 17.8 °F 30.2 °F 100% 29.60 in 10.0 mi WNW 19.6 mph 26.5 mph N/A   Overcast
9:35 AM 30.2 °F 17.8 °F 30.2 °F 100% 29.60 in 10.0 mi NW 19.6 mph 24.2 mph N/A   Overcast
9:55 AM 30.2 °F 19.3 °F 30.2 °F 100% 29.59 in 7.0 mi WNW 15.0 mph 23.0 mph N/A Snow Light Snow
10:15 AM 30.2 °F 17.8 °F 30.2 °F 100% 29.58 in 2.0 mi NW 19.6 mph 31.1 mph N/A Snow Light Snow
10:35 AM 30.2 °F 17.4 °F 30.2 °F 100% 29.57 in 0.8 mi NW 20.7 mph 27.6 mph N/A Snow Light Snow
10:55 AM 30.2 °F 16.8 °F 30.2 °F 100% 29.57 in 1.0 mi NW 23.0 mph 29.9 mph N/A Snow Light Snow
11:15 AM 30.2 °F 16.5 °F 30.2 °F 100% 29.56 in 1.5 mi NW 24.2 mph 33.4 mph N/A Snow Light Snow
11:35 AM 30.2 °F 17.4 °F 30.2 °F 100% 29.55 in 1.8 mi NW 20.7 mph 33.4 mph N/A Snow Light Snow
11:55 AM 30.2 °F 15.7 °F 30.2 °F 100% 29.53 in 1.5 mi WNW 27.6 mph 33.4 mph N/A Snow Light Snow
12:15 PM 30.2 °F 16.8 °F 30.2 °F 100% 29.53 in 3.0 mi NW 23.0 mph 33.4 mph N/A Snow Light Snow
12:35 PM 30.2 °F 16.5 °F 30.2 °F 100% 29.50 in 7.0 mi NW 24.2 mph 35.7 mph N/A Snow Light Snow
12:55 PM 30.2 °F 16.2 °F 30.2 °F 100% 29.48 in 10.0 mi WNW 25.3 mph 44.9 mph N/A   Overcast
1:15 PM 30.2 °F 15.4 °F 30.2 °F 100% 29.47 in 10.0 mi WNW 28.8 mph 40.3 mph N/A   Overcast
1:35 PM 30.2 °F 15.4 °F 30.2 °F 100% 29.45 in 7.0 mi WNW 28.8 mph 41.4 mph N/A   Overcast
1:55 PM 32.0 °F 16.7 °F 30.2 °F 93% 29.43 in 7.0 mi NW 34.5 mph 41.4 mph N/A Snow Light Snow
2:55 PM 32.0 °F 18.4 °F 30.2 °F 93% 29.41 in 4.0 mi NW 26.5 mph 36.8 mph N/A Snow Light Snow
3:15 PM 32.0 °F 19.2 °F 30.2 °F 93% 29.40 in 3.0 mi NW 23.0 mph 34.5 mph N/A Snow Light Snow
3:35 PM 30.2 °F 16.8 °F 30.2 °F 100% 29.37 in 2.5 mi WNW 23.0 mph 35.7 mph N/A Snow Light Snow
3:55 PM 32.0 °F 18.4 °F 30.2 °F 93% 29.35 in 4.0 mi WNW 26.5 mph 39.1 mph N/A Snow Light Snow
4:15 PM 32.0 °F 18.4 °F 30.2 °F 93% 29.31 in 4.0 mi WNW 26.5 mph 36.8 mph N/A Snow Light Snow
4:35 PM 32.0 °F 17.9 °F 30.2 °F 93% 29.31 in 10.0 mi NW 28.8 mph 39.1 mph N/A   Overcast
4:55 PM 32.0 °F 18.4 °F 30.2 °F 93% 29.31 in 10.0 mi WNW 26.5 mph 46.0 mph N/A   Overcast
5:15 PM 32.0 °F 17.0 °F 30.2 °F 93% 29.30 in 10.0 mi WNW 33.4 mph 50.6 mph N/A Snow Light Snow
5:35 PM 30.2 °F 15.7 °F 30.2 °F 100% 29.29 in 7.0 mi WNW 27.6 mph 42.6 mph N/A Snow Light Snow
6:15 PM 30.2 °F 15.4 °F 30.2 °F 100% 29.25 in 1.2 mi WNW 28.8 mph 46.0 mph N/A Snow Light Snow
6:35 PM 30.2 °F 14.7 °F 30.2 °F 100% 29.22 in 0.5 mi WNW 32.2 mph 47.2 mph N/A Snow Light Snow
6:55 PM 30.2 °F 15.4 °F 30.2 °F 100% 29.22 in 0.5 mi WNW 28.8 mph 39.1 mph N/A Snow Light Snow
7:15 PM 30.2 °F 15.2 °F 30.2 °F 100% 29.19 in 0.8 mi WNW 29.9 mph 44.9 mph N/A Snow Light Snow
7:35 PM 30.2 °F 14.3 °F 30.2 °F 100% 29.17 in 1.8 mi WNW 34.5 mph 43.7 mph N/A Snow Light Snow
7:55 PM 30.2 °F 15.9 °F 30.2 °F 100% 29.16 in 2.0 mi WNW 26.5 mph 52.9 mph N/A Snow Light Snow
8:15 PM 30.2 °F 15.7 °F 30.2 °F 100% 29.15 in 1.0 mi WNW 27.6 mph 54.1 mph N/A Snow Light Snow
8:35 PM 30.2 °F 14.9 °F 30.2 °F 100% 29.15 in 0.5 mi WNW 31.1 mph 46.0 mph N/A Snow Light Snow
8:55 PM 30.2 °F 15.2 °F 30.2 °F 100% 29.14 in 0.5 mi WNW 29.9 mph 42.6 mph N/A Snow Light Snow
11:55 PM 28.4 °F 11.6 °F 28.4 °F 100% 29.04 in 0.5 mi West 35.7 mph 49.5 mph N/A Snow Snow